Lid_Strength_Index
1 1 1 0 2 2 2 2 2 2 2 1 1 1 1 1 -0 -0 1 -1 -1 -1 -2 -2 -2 -2 -2 -1 -1 -1 -1 -1 -1 -1 -1 -1 -1 -1 -2 -2 -2 -2 -2
0 1 0 1 2 2 2 2 2 3 2 2 1 1 1 1 0 0 0 1 -1 -2 -2 -2 -2 -2 -2 -2 -1 -1 -1 -1 -1 -1 -1 -1 -1 -1 -1 -1 -2 -2 -2
1 0 1 2 3 2 2 3 3 3 3 2 2 2 2 1 0 1 0 0 -0 -2 -2 -2 -2 -2 -2 -1 -1 -1 -1 -1 -1 -1 -1 -1 -1 -1 -1 -1 -1 -2 -1
0 2 1 2 2 2 3 3 3 3 2 2 3 2 2 2 1 0 1 0 0 0 -1 -2 -2 -2 -2 -2 -2 -1 -1 -1 -1 -0 -1 -1 -1 -1 -1 -1 -1 -1 -1
1 2 2 3 2 3 3 3 3 3 4 3 3 3 3 2 2 0 1 1 0 0 1 -1 -2 -2 -2 -2 -2 -2 -2 -1 -1 -1 -1 -1 -1 -1 -1 -2 -2 -1 -1
2 1 2 3 3 3 3 3 3 4 3 3 3 2 3 2 2 2 1 1 1 1 1 1 0 -0 -2 -2 -2 -2 -1 -1 -1 -1 -1 -1 -1 -1 -1 -1 -1 -1 -1
2 2 3 3 3 3 3 3 4 3 4 3 3 4 3 2 3 2 2 2 1 0 1 1 1 0 0 -2 -1 -1 -1 -1 -1 -1 -1 -0 -1 -1 -1 -1 -1 -0 1
2 3 3 3 3 3 3 4 2 4 4 2 5 5 6 4 2 2 2 2 2 1 1 1 1 0 1 0 -0 -1 -1 -1 -1 -1 -1 -0 -1 -1 -1 -1 -1 1 0
2 2 2 3 3 3 3 4 3 4 4 4 4 5 7 7 4 2 2 2 2 2 2 2 1 0 0 1 -0 -1 -1 -1 -1 -1 -1 -1 -1 -1 -1 -1 -1 -1 -0
2 2 3 3 3 3 3 3 3 4 4 5 4 3 4 4 6 6 3 2 3 3 3 2 1 1 0 1 -0 -1 -0 -1 -1 -1 -1 -1 -1 -1 -1 1 1 0 1
2 2 2 3 3 3 3 3 3 4 4 4 4 4 5 4 4 5 6 4 3 3 2 2 2 2 1 1 1 0 -0 -0 -0 -0 -1 -1 -1 -1 1 1 1 0 0
3 3 3 3 3 3 3 3 3 3 3 4 4 4 4 5 5 4 5 6 5 4 2 1 2 2 2 1 -0 -0 0 1 1 1 0 -1 -1 -1 -1 -1 -1 -0 -1
4 3 3 3 3 2 2 3 3 3 3 3 3 4 4 4 4 3 4 5 5 4 3 2 1 0 0 1 0 -0 -0 1 2 2 1 0 0 -0 -1 -1 -1 -1 -1
3 3 3 3 2 2 2 3 3 3 2 2 3 3 4 3 4 4 3 5 6 4 3 3 1 1 0 1 -0 -1 1 2 2 3 2 2 1 1 -0 0 -0 -1 -1
3 3 3 2 2 2 2 2 2 2 2 2 3 3 4 3 4 4 2 2 4 6 6 3 3 1 0 -0 -0 1 1 2 2 3 2 2 2 2 2 1 1 1 1
3 2 2 2 2 2 2 2 3 2 2 2 2 2 3 3 3 4 3 3 4 4 6 3 3 2 0 1 1 2 2 2 2 2 2 2 3 3 2 2 1 2 1
2 2 2 2 2 2 2 3 2 1 2 2 2 3 3 3 3 3 2 3 4 3 4 3 2 1 1 1 1 1 1 2 2 2 3 3 3 3 3 3 3 3 2
3 2 2 2 2 2 2 3 2 1 2 2 2 2 3 2 3 3 3 3 3 3 3 4 3 3 2 2 2 2 2 1 2 3 3 3 4 5 5 5 5 4 4
3 2 2 2 2 2 2 2 2 1 2 2 2 2 3 2 2 2 3 3 2 2 2 3 4 3 3 3 3 3 3 3 2 2 3 5 5 6 5 5 5 6 6
2 2 1 1 2 2 2 1 1 1 2 2 2 2 2 2 2 2 2 2 2 3 2 3 3 3 4 3 3 4 5 3 4 3 4 4 5 5 5 5 5 6 7
1 1 1 3 3 3 4 3 1 2 2 2 2 1 1 1 2 2 2 2 2 3 2 3 3 4 4 4 5 4 5 5 5 4 5 5 5 5 6 5 4 5 5
1 1 3 3 4 3 10 7 3 2 2 2 2 2 2 3 4 4 4 4 3 2 3 3 4 4 4 4 4 5 5 6 7 4 5 7 6 7 7 7 5 5 6
2 2 3 4 4 4 11 9 6 2 3 2 2 2 2 3 3 3 6 6 5 5 3 2 3 3 4 4 4 5 5 6 6 5 6 8 8 8 7 6 6 6 7
2 3 4 5 4 5 11 10 7 2 2 2 2 3 3 3 3 3 3 3 2 2 2 1 2 3 3 3 3 4 4 5 5 6 7 7 7 9 9 9 7 7 8
4 4 4 5 4 5 11 9 5 2 2 2 2 2 3 3 9 8 3 4 4 5 6 7 8 8 9 8 5 4 5 6 6 6 5 7 9 10 10 10 10 8 9
4 3 4 5 6 4 11 9 5 2 2 2 3 4 8 6 10 8 3 4 5 4 4 4 5 6 6 7 6 3 4 6 6 4 4 8 10 10 11 11 11 10 11